Index of /20260423/WXO-DD/model_rdps/10km/18/036
Name Last modified Size Description
Parent Directory -
20260423T18Z_MSC_RDPS_AbsoluteVorticity_IsbL-0250_RLatLon0.09_PT036H.grib2 2026-04-23 20:48 622K
20260423T18Z_MSC_RDPS_AbsoluteVorticity_IsbL-0500_RLatLon0.09_PT036H.grib2 2026-04-23 20:48 568K
20260423T18Z_MSC_RDPS_AbsoluteVorticity_IsbL-0700_RLatLon0.09_PT036H.grib2 2026-04-23 20:48 629K
20260423T18Z_MSC_RDPS_AbsoluteVorticity_IsbL-0850_RLatLon0.09_PT036H.grib2 2026-04-23 20:48 782K
20260423T18Z_MSC_RDPS_AirTemp_AGL-120m_RLatLon0.09_PT036H.grib2 2026-04-23 20:48 374K
20260423T18Z_MSC_RDPS_AirTemp_AGL-2m_RLatLon0.09_PT036H.grib2 2026-04-23 20:48 624K
20260423T18Z_MSC_RDPS_AirTemp_AGL-40m_RLatLon0.09_PT036H.grib2 2026-04-23 20:48 388K
20260423T18Z_MSC_RDPS_AirTemp_AGL-80m_RLatLon0.09_PT036H.grib2 2026-04-23 20:48 379K
20260423T18Z_MSC_RDPS_AirTemp_IsbL-0001_RLatLon0.09_PT036H.grib2 2026-04-23 20:48 300K
20260423T18Z_MSC_RDPS_AirTemp_IsbL-0005_RLatLon0.09_PT036H.grib2 2026-04-23 20:48 335K
20260423T18Z_MSC_RDPS_AirTemp_IsbL-0010_RLatLon0.09_PT036H.grib2 2026-04-23 20:48 307K
20260423T18Z_MSC_RDPS_AirTemp_IsbL-0020_RLatLon0.09_PT036H.grib2 2026-04-23 20:48 327K
20260423T18Z_MSC_RDPS_AirTemp_IsbL-0030_RLatLon0.09_PT036H.grib2 2026-04-23 20:48 352K
20260423T18Z_MSC_RDPS_AirTemp_IsbL-0050_RLatLon0.09_PT036H.grib2 2026-04-23 20:48 330K
20260423T18Z_MSC_RDPS_AirTemp_IsbL-0100_RLatLon0.09_PT036H.grib2 2026-04-23 20:48 435K
20260423T18Z_MSC_RDPS_AirTemp_IsbL-0150_RLatLon0.09_PT036H.grib2 2026-04-23 20:48 436K
20260423T18Z_MSC_RDPS_AirTemp_IsbL-0175_RLatLon0.09_PT036H.grib2 2026-04-23 20:48 428K
20260423T18Z_MSC_RDPS_AirTemp_IsbL-0200_RLatLon0.09_PT036H.grib2 2026-04-23 20:48 426K
20260423T18Z_MSC_RDPS_AirTemp_IsbL-0225_RLatLon0.09_PT036H.grib2 2026-04-23 20:48 424K
20260423T18Z_MSC_RDPS_AirTemp_IsbL-0250_RLatLon0.09_PT036H.grib2 2026-04-23 20:48 429K
20260423T18Z_MSC_RDPS_AirTemp_IsbL-0275_RLatLon0.09_PT036H.grib2 2026-04-23 20:48 410K
20260423T18Z_MSC_RDPS_AirTemp_IsbL-0300_RLatLon0.09_PT036H.grib2 2026-04-23 20:48 417K
20260423T18Z_MSC_RDPS_AirTemp_IsbL-0350_RLatLon0.09_PT036H.grib2 2026-04-23 20:48 431K
20260423T18Z_MSC_RDPS_AirTemp_IsbL-0400_RLatLon0.09_PT036H.grib2 2026-04-23 20:48 430K
20260423T18Z_MSC_RDPS_AirTemp_IsbL-0450_RLatLon0.09_PT036H.grib2 2026-04-23 20:48 403K
20260423T18Z_MSC_RDPS_AirTemp_IsbL-0500_RLatLon0.09_PT036H.grib2 2026-04-23 20:48 414K
20260423T18Z_MSC_RDPS_AirTemp_IsbL-0550_RLatLon0.09_PT036H.grib2 2026-04-23 20:48 433K
20260423T18Z_MSC_RDPS_AirTemp_IsbL-0600_RLatLon0.09_PT036H.grib2 2026-04-23 20:48 449K
20260423T18Z_MSC_RDPS_AirTemp_IsbL-0650_RLatLon0.09_PT036H.grib2 2026-04-23 20:48 465K
20260423T18Z_MSC_RDPS_AirTemp_IsbL-0700_RLatLon0.09_PT036H.grib2 2026-04-23 20:48 490K
20260423T18Z_MSC_RDPS_AirTemp_IsbL-0750_RLatLon0.09_PT036H.grib2 2026-04-23 20:48 413K
20260423T18Z_MSC_RDPS_AirTemp_IsbL-0800_RLatLon0.09_PT036H.grib2 2026-04-23 20:48 456K
20260423T18Z_MSC_RDPS_AirTemp_IsbL-0850_RLatLon0.09_PT036H.grib2 2026-04-23 20:48 498K
20260423T18Z_MSC_RDPS_AirTemp_IsbL-0875_RLatLon0.09_PT036H.grib2 2026-04-23 20:48 524K
20260423T18Z_MSC_RDPS_AirTemp_IsbL-0900_RLatLon0.09_PT036H.grib2 2026-04-23 20:48 522K
20260423T18Z_MSC_RDPS_AirTemp_IsbL-0925_RLatLon0.09_PT036H.grib2 2026-04-23 20:48 528K
20260423T18Z_MSC_RDPS_AirTemp_IsbL-0950_RLatLon0.09_PT036H.grib2 2026-04-23 20:48 520K
20260423T18Z_MSC_RDPS_AirTemp_IsbL-0970_RLatLon0.09_PT036H.grib2 2026-04-23 20:48 516K
20260423T18Z_MSC_RDPS_AirTemp_IsbL-0985_RLatLon0.09_PT036H.grib2 2026-04-23 20:48 502K
20260423T18Z_MSC_RDPS_AirTemp_IsbL-1000_RLatLon0.09_PT036H.grib2 2026-04-23 20:48 484K
20260423T18Z_MSC_RDPS_AirTemp_IsbL-1015_RLatLon0.09_PT036H.grib2 2026-04-23 20:48 480K
20260423T18Z_MSC_RDPS_Albedo_Sfc_RLatLon0.09_PT036H.grib2 2026-04-23 20:48 164K
20260423T18Z_MSC_RDPS_CAPE_Sfc_RLatLon0.09_PT036H.grib2 2026-04-23 20:48 1.6M
20260423T18Z_MSC_RDPS_CIN_Sfc_RLatLon0.09_PT036H.grib2 2026-04-23 20:48 1.1M
20260423T18Z_MSC_RDPS_CloudWater_EAtm_RLatLon0.09_PT036H.grib2 2026-04-23 20:48 218K
20260423T18Z_MSC_RDPS_ConvectivePrecip-Accum_Sfc_RLatLon0.09_PT036H.grib2 2026-04-23 20:48 1.0M
20260423T18Z_MSC_RDPS_DewPointDepression_AGL-2m_RLatLon0.09_PT036H.grib2 2026-04-23 20:48 390K
20260423T18Z_MSC_RDPS_DewPointDepression_IsbL-0001_RLatLon0.09_PT036H.grib2 2026-04-23 20:48 193
20260423T18Z_MSC_RDPS_DewPointDepression_IsbL-0005_RLatLon0.09_PT036H.grib2 2026-04-23 20:48 193
20260423T18Z_MSC_RDPS_DewPointDepression_IsbL-0010_RLatLon0.09_PT036H.grib2 2026-04-23 20:48 193
20260423T18Z_MSC_RDPS_DewPointDepression_IsbL-0020_RLatLon0.09_PT036H.grib2 2026-04-23 20:48 193
20260423T18Z_MSC_RDPS_DewPointDepression_IsbL-0030_RLatLon0.09_PT036H.grib2 2026-04-23 20:48 193
20260423T18Z_MSC_RDPS_DewPointDepression_IsbL-0050_RLatLon0.09_PT036H.grib2 2026-04-23 20:48 91K
20260423T18Z_MSC_RDPS_DewPointDepression_IsbL-0100_RLatLon0.09_PT036H.grib2 2026-04-23 20:48 131K
20260423T18Z_MSC_RDPS_DewPointDepression_IsbL-0150_RLatLon0.09_PT036H.grib2 2026-04-23 20:48 155K
20260423T18Z_MSC_RDPS_DewPointDepression_IsbL-0175_RLatLon0.09_PT036H.grib2 2026-04-23 20:48 192K
20260423T18Z_MSC_RDPS_DewPointDepression_IsbL-0200_RLatLon0.09_PT036H.grib2 2026-04-23 20:48 224K
20260423T18Z_MSC_RDPS_DewPointDepression_IsbL-0225_RLatLon0.09_PT036H.grib2 2026-04-23 20:48 261K
20260423T18Z_MSC_RDPS_DewPointDepression_IsbL-0250_RLatLon0.09_PT036H.grib2 2026-04-23 20:48 297K
20260423T18Z_MSC_RDPS_DewPointDepression_IsbL-0275_RLatLon0.09_PT036H.grib2 2026-04-23 20:48 311K
20260423T18Z_MSC_RDPS_DewPointDepression_IsbL-0300_RLatLon0.09_PT036H.grib2 2026-04-23 20:48 335K
20260423T18Z_MSC_RDPS_DewPointDepression_IsbL-0350_RLatLon0.09_PT036H.grib2 2026-04-23 20:48 346K
20260423T18Z_MSC_RDPS_DewPointDepression_IsbL-0400_RLatLon0.09_PT036H.grib2 2026-04-23 20:48 358K
20260423T18Z_MSC_RDPS_DewPointDepression_IsbL-0450_RLatLon0.09_PT036H.grib2 2026-04-23 20:48 365K
20260423T18Z_MSC_RDPS_DewPointDepression_IsbL-0500_RLatLon0.09_PT036H.grib2 2026-04-23 20:48 372K
20260423T18Z_MSC_RDPS_DewPointDepression_IsbL-0550_RLatLon0.09_PT036H.grib2 2026-04-23 20:48 383K
20260423T18Z_MSC_RDPS_DewPointDepression_IsbL-0600_RLatLon0.09_PT036H.grib2 2026-04-23 20:48 391K
20260423T18Z_MSC_RDPS_DewPointDepression_IsbL-0650_RLatLon0.09_PT036H.grib2 2026-04-23 20:48 394K
20260423T18Z_MSC_RDPS_DewPointDepression_IsbL-0700_RLatLon0.09_PT036H.grib2 2026-04-23 20:48 403K
20260423T18Z_MSC_RDPS_DewPointDepression_IsbL-0750_RLatLon0.09_PT036H.grib2 2026-04-23 20:48 422K
20260423T18Z_MSC_RDPS_DewPointDepression_IsbL-0800_RLatLon0.09_PT036H.grib2 2026-04-23 20:48 447K
20260423T18Z_MSC_RDPS_DewPointDepression_IsbL-0850_RLatLon0.09_PT036H.grib2 2026-04-23 20:48 464K
20260423T18Z_MSC_RDPS_DewPointDepression_IsbL-0875_RLatLon0.09_PT036H.grib2 2026-04-23 20:48 468K
20260423T18Z_MSC_RDPS_DewPointDepression_IsbL-0900_RLatLon0.09_PT036H.grib2 2026-04-23 20:48 466K
20260423T18Z_MSC_RDPS_DewPointDepression_IsbL-0925_RLatLon0.09_PT036H.grib2 2026-04-23 20:48 455K
20260423T18Z_MSC_RDPS_DewPointDepression_IsbL-0950_RLatLon0.09_PT036H.grib2 2026-04-23 20:48 443K
20260423T18Z_MSC_RDPS_DewPointDepression_IsbL-0970_RLatLon0.09_PT036H.grib2 2026-04-23 20:48 433K
20260423T18Z_MSC_RDPS_DewPointDepression_IsbL-0985_RLatLon0.09_PT036H.grib2 2026-04-23 20:48 426K
20260423T18Z_MSC_RDPS_DewPointDepression_IsbL-1000_RLatLon0.09_PT036H.grib2 2026-04-23 20:48 420K
20260423T18Z_MSC_RDPS_DewPointDepression_IsbL-1015_RLatLon0.09_PT036H.grib2 2026-04-23 20:48 409K
20260423T18Z_MSC_RDPS_DewPoint_AGL-2m_RLatLon0.09_PT036H.grib2 2026-04-23 20:48 303K
20260423T18Z_MSC_RDPS_DownwardLongwaveRadiationFlux-Accum_Sfc_RLatLon0.09_PT036H.grib2 2026-04-23 20:48 375K
20260423T18Z_MSC_RDPS_DownwardShortwaveRadiationFlux-Accum_NTAtm_RLatLon0.09_PT036H.grib2 2026-04-23 20:48 94K
20260423T18Z_MSC_RDPS_DownwardShortwaveRadiationFlux-Accum_Sfc_RLatLon0.09_PT036H.grib2 2026-04-23 20:48 516K
20260423T18Z_MSC_RDPS_FreezingRain-Accum12h_Sfc_RLatLon0.09_PT036H.grib2 2026-04-23 20:48 64K
20260423T18Z_MSC_RDPS_FreezingRain-Accum1h_Sfc_RLatLon0.09_PT036H.grib2 2026-04-23 20:48 40K
20260423T18Z_MSC_RDPS_FreezingRain-Accum24h_Sfc_RLatLon0.09_PT036H.grib2 2026-04-23 20:48 91K
20260423T18Z_MSC_RDPS_FreezingRain-Accum3h_Sfc_RLatLon0.09_PT036H.grib2 2026-04-23 20:48 41K
20260423T18Z_MSC_RDPS_FreezingRain-Accum6h_Sfc_RLatLon0.09_PT036H.grib2 2026-04-23 20:48 55K
20260423T18Z_MSC_RDPS_FreezingRain-Accum_Sfc_RLatLon0.09_PT036H.grib2 2026-04-23 20:48 116K
20260423T18Z_MSC_RDPS_GeopotentialHeight_IsbL-0001_RLatLon0.09_PT036H.grib2 2026-04-23 20:48 272K
20260423T18Z_MSC_RDPS_GeopotentialHeight_IsbL-0005_RLatLon0.09_PT036H.grib2 2026-04-23 20:48 310K
20260423T18Z_MSC_RDPS_GeopotentialHeight_IsbL-0010_RLatLon0.09_PT036H.grib2 2026-04-23 20:48 341K
20260423T18Z_MSC_RDPS_GeopotentialHeight_IsbL-0020_RLatLon0.09_PT036H.grib2 2026-04-23 20:48 309K
20260423T18Z_MSC_RDPS_GeopotentialHeight_IsbL-0030_RLatLon0.09_PT036H.grib2 2026-04-23 20:48 406K
20260423T18Z_MSC_RDPS_GeopotentialHeight_IsbL-0050_RLatLon0.09_PT036H.grib2 2026-04-23 20:48 312K
20260423T18Z_MSC_RDPS_GeopotentialHeight_IsbL-0100_RLatLon0.09_PT036H.grib2 2026-04-23 20:48 290K
20260423T18Z_MSC_RDPS_GeopotentialHeight_IsbL-0150_RLatLon0.09_PT036H.grib2 2026-04-23 20:48 231K
20260423T18Z_MSC_RDPS_GeopotentialHeight_IsbL-0175_RLatLon0.09_PT036H.grib2 2026-04-23 20:48 235K
20260423T18Z_MSC_RDPS_GeopotentialHeight_IsbL-0200_RLatLon0.09_PT036H.grib2 2026-04-23 20:48 238K
20260423T18Z_MSC_RDPS_GeopotentialHeight_IsbL-0225_RLatLon0.09_PT036H.grib2 2026-04-23 20:48 271K
20260423T18Z_MSC_RDPS_GeopotentialHeight_IsbL-0250_RLatLon0.09_PT036H.grib2 2026-04-23 20:48 271K
20260423T18Z_MSC_RDPS_GeopotentialHeight_IsbL-0275_RLatLon0.09_PT036H.grib2 2026-04-23 20:48 240K
20260423T18Z_MSC_RDPS_GeopotentialHeight_IsbL-0300_RLatLon0.09_PT036H.grib2 2026-04-23 20:48 239K
20260423T18Z_MSC_RDPS_GeopotentialHeight_IsbL-0350_RLatLon0.09_PT036H.grib2 2026-04-23 20:48 235K
20260423T18Z_MSC_RDPS_GeopotentialHeight_IsbL-0400_RLatLon0.09_PT036H.grib2 2026-04-23 20:48 231K
20260423T18Z_MSC_RDPS_GeopotentialHeight_IsbL-0450_RLatLon0.09_PT036H.grib2 2026-04-23 20:48 299K
20260423T18Z_MSC_RDPS_GeopotentialHeight_IsbL-0500_RLatLon0.09_PT036H.grib2 2026-04-23 20:48 294K
20260423T18Z_MSC_RDPS_GeopotentialHeight_IsbL-0550_RLatLon0.09_PT036H.grib2 2026-04-23 20:48 290K
20260423T18Z_MSC_RDPS_GeopotentialHeight_IsbL-0600_RLatLon0.09_PT036H.grib2 2026-04-23 20:48 284K
20260423T18Z_MSC_RDPS_GeopotentialHeight_IsbL-0650_RLatLon0.09_PT036H.grib2 2026-04-23 20:48 254K
20260423T18Z_MSC_RDPS_GeopotentialHeight_IsbL-0700_RLatLon0.09_PT036H.grib2 2026-04-23 20:48 335K
20260423T18Z_MSC_RDPS_GeopotentialHeight_IsbL-0750_RLatLon0.09_PT036H.grib2 2026-04-23 20:48 337K
20260423T18Z_MSC_RDPS_GeopotentialHeight_IsbL-0800_RLatLon0.09_PT036H.grib2 2026-04-23 20:48 344K
20260423T18Z_MSC_RDPS_GeopotentialHeight_IsbL-0850_RLatLon0.09_PT036H.grib2 2026-04-23 20:48 352K
20260423T18Z_MSC_RDPS_GeopotentialHeight_IsbL-0875_RLatLon0.09_PT036H.grib2 2026-04-23 20:48 353K
20260423T18Z_MSC_RDPS_GeopotentialHeight_IsbL-0900_RLatLon0.09_PT036H.grib2 2026-04-23 20:48 359K
20260423T18Z_MSC_RDPS_GeopotentialHeight_IsbL-0925_RLatLon0.09_PT036H.grib2 2026-04-23 20:48 361K
20260423T18Z_MSC_RDPS_GeopotentialHeight_IsbL-0950_RLatLon0.09_PT036H.grib2 2026-04-23 20:48 366K
20260423T18Z_MSC_RDPS_GeopotentialHeight_IsbL-0970_RLatLon0.09_PT036H.grib2 2026-04-23 20:48 371K
20260423T18Z_MSC_RDPS_GeopotentialHeight_IsbL-0985_RLatLon0.09_PT036H.grib2 2026-04-23 20:48 290K
20260423T18Z_MSC_RDPS_GeopotentialHeight_IsbL-1000_RLatLon0.09_PT036H.grib2 2026-04-23 20:48 299K
20260423T18Z_MSC_RDPS_GeopotentialHeight_IsbL-1015_RLatLon0.09_PT036H.grib2 2026-04-23 20:48 310K
20260423T18Z_MSC_RDPS_Humidex_Sfc_RLatLon0.09_PT036H.grib2 2026-04-23 20:48 2.4M
20260423T18Z_MSC_RDPS_IcePellets-Accum12h_Sfc_RLatLon0.09_PT036H.grib2 2026-04-23 20:48 41K
20260423T18Z_MSC_RDPS_IcePellets-Accum1h_Sfc_RLatLon0.09_PT036H.grib2 2026-04-23 20:48 20K
20260423T18Z_MSC_RDPS_IcePellets-Accum24h_Sfc_RLatLon0.09_PT036H.grib2 2026-04-23 20:48 53K
20260423T18Z_MSC_RDPS_IcePellets-Accum3h_Sfc_RLatLon0.09_PT036H.grib2 2026-04-23 20:48 25K
20260423T18Z_MSC_RDPS_IcePellets-Accum6h_Sfc_RLatLon0.09_PT036H.grib2 2026-04-23 20:48 32K
20260423T18Z_MSC_RDPS_IcePellets-Accum_Sfc_RLatLon0.09_PT036H.grib2 2026-04-23 20:48 58K
20260423T18Z_MSC_RDPS_KIndex_Sfc_RLatLon0.09_PT036H.grib2 2026-04-23 20:48 2.5M
20260423T18Z_MSC_RDPS_LatentHeatNetFlux_Sfc_RLatLon0.09_PT036H.grib2 2026-04-23 20:48 398K
20260423T18Z_MSC_RDPS_LiftedIndex-MU-VT_IsbL-0500_RLatLon0.09_PT036H.grib2 2026-04-23 20:48 2.4M
20260423T18Z_MSC_RDPS_NetLongwaveRadiationFlux-Accum_Sfc_RLatLon0.09_PT036H.grib2 2026-04-23 20:48 506K
20260423T18Z_MSC_RDPS_NetShortwaveRadiationFlux-Accum_Sfc_RLatLon0.09_PT036H.grib2 2026-04-23 20:48 564K
20260423T18Z_MSC_RDPS_PlanetaryBoundaryLayerHeight_Sfc_RLatLon0.09_PT036H.grib2 2026-04-23 20:48 1.1M
20260423T18Z_MSC_RDPS_Precip-Accum12h_Sfc_RLatLon0.09_PT036H.grib2 2026-04-23 20:48 1.6M
20260423T18Z_MSC_RDPS_Precip-Accum1h_Sfc_RLatLon0.09_PT036H.grib2 2026-04-23 20:48 1.2M
20260423T18Z_MSC_RDPS_Precip-Accum24h_Sfc_RLatLon0.09_PT036H.grib2 2026-04-23 20:48 1.8M
20260423T18Z_MSC_RDPS_Precip-Accum3h_Sfc_RLatLon0.09_PT036H.grib2 2026-04-23 20:48 1.3M
20260423T18Z_MSC_RDPS_Precip-Accum6h_Sfc_RLatLon0.09_PT036H.grib2 2026-04-23 20:48 1.5M
20260423T18Z_MSC_RDPS_Precip-Accum_Sfc_RLatLon0.09_PT036H.grib2 2026-04-23 20:48 2.0M
20260423T18Z_MSC_RDPS_PrecipRate_Sfc_RLatLon0.09_PT036H.grib2 2026-04-23 20:48 184K
20260423T18Z_MSC_RDPS_PrecipType-Instant_Sfc_RLatLon0.09_PT036H.grib2 2026-04-23 20:48 594K
20260423T18Z_MSC_RDPS_Pressure-Trend3h_Sfc_RLatLon0.09_PT036H.grib2 2026-04-23 20:48 1.2M
20260423T18Z_MSC_RDPS_Pressure_MSL_RLatLon0.09_PT036H.grib2 2026-04-23 20:48 323K
20260423T18Z_MSC_RDPS_Pressure_PVU-1.5_RLatLon0.09_PT036H.grib2 2026-04-23 20:48 2.3M
20260423T18Z_MSC_RDPS_Pressure_PVU-1_RLatLon0.09_PT036H.grib2 2026-04-23 20:48 2.4M
20260423T18Z_MSC_RDPS_Pressure_PVU-2_RLatLon0.09_PT036H.grib2 2026-04-23 20:48 2.4M
20260423T18Z_MSC_RDPS_Pressure_Sfc_RLatLon0.09_PT036H.grib2 2026-04-23 20:48 499K
20260423T18Z_MSC_RDPS_RadiativeTemp_Sfc_RLatLon0.09_PT036H.grib2 2026-04-23 20:48 299K
20260423T18Z_MSC_RDPS_Rain-Accum12h_Sfc_RLatLon0.09_PT036H.grib2 2026-04-23 20:48 1.0M
20260423T18Z_MSC_RDPS_Rain-Accum1h_Sfc_RLatLon0.09_PT036H.grib2 2026-04-23 20:48 512K
20260423T18Z_MSC_RDPS_Rain-Accum24h_Sfc_RLatLon0.09_PT036H.grib2 2026-04-23 20:48 1.2M
20260423T18Z_MSC_RDPS_Rain-Accum3h_Sfc_RLatLon0.09_PT036H.grib2 2026-04-23 20:48 577K
20260423T18Z_MSC_RDPS_Rain-Accum6h_Sfc_RLatLon0.09_PT036H.grib2 2026-04-23 20:48 898K
20260423T18Z_MSC_RDPS_Rain-Accum_Sfc_RLatLon0.09_PT036H.grib2 2026-04-23 20:48 1.4M
20260423T18Z_MSC_RDPS_RelativeHumidity_AGL-2m_RLatLon0.09_PT036H.grib2 2026-04-23 20:48 1.0M
20260423T18Z_MSC_RDPS_RelativeHumidity_IsbL-0010_RLatLon0.09_PT036H.grib2 2026-04-23 20:48 636K
20260423T18Z_MSC_RDPS_RelativeHumidity_IsbL-0020_RLatLon0.09_PT036H.grib2 2026-04-23 20:48 661K
20260423T18Z_MSC_RDPS_RelativeHumidity_IsbL-0030_RLatLon0.09_PT036H.grib2 2026-04-23 20:48 551K
20260423T18Z_MSC_RDPS_RelativeHumidity_IsbL-0050_RLatLon0.09_PT036H.grib2 2026-04-23 20:48 382K
20260423T18Z_MSC_RDPS_RelativeHumidity_IsbL-0100_RLatLon0.09_PT036H.grib2 2026-04-23 20:48 379K
20260423T18Z_MSC_RDPS_RelativeHumidity_IsbL-0150_RLatLon0.09_PT036H.grib2 2026-04-23 20:48 401K
20260423T18Z_MSC_RDPS_RelativeHumidity_IsbL-0175_RLatLon0.09_PT036H.grib2 2026-04-23 20:48 492K
20260423T18Z_MSC_RDPS_RelativeHumidity_IsbL-0200_RLatLon0.09_PT036H.grib2 2026-04-23 20:48 574K
20260423T18Z_MSC_RDPS_RelativeHumidity_IsbL-0225_RLatLon0.09_PT036H.grib2 2026-04-23 20:48 641K
20260423T18Z_MSC_RDPS_RelativeHumidity_IsbL-0250_RLatLon0.09_PT036H.grib2 2026-04-23 20:48 708K
20260423T18Z_MSC_RDPS_RelativeHumidity_IsbL-0275_RLatLon0.09_PT036H.grib2 2026-04-23 20:48 732K
20260423T18Z_MSC_RDPS_RelativeHumidity_IsbL-0300_RLatLon0.09_PT036H.grib2 2026-04-23 20:48 776K
20260423T18Z_MSC_RDPS_RelativeHumidity_IsbL-0350_RLatLon0.09_PT036H.grib2 2026-04-23 20:48 803K
20260423T18Z_MSC_RDPS_RelativeHumidity_IsbL-0400_RLatLon0.09_PT036H.grib2 2026-04-23 20:48 816K
20260423T18Z_MSC_RDPS_RelativeHumidity_IsbL-0450_RLatLon0.09_PT036H.grib2 2026-04-23 20:48 822K
20260423T18Z_MSC_RDPS_RelativeHumidity_IsbL-0500_RLatLon0.09_PT036H.grib2 2026-04-23 20:48 831K
20260423T18Z_MSC_RDPS_RelativeHumidity_IsbL-0550_RLatLon0.09_PT036H.grib2 2026-04-23 20:48 856K
20260423T18Z_MSC_RDPS_RelativeHumidity_IsbL-0600_RLatLon0.09_PT036H.grib2 2026-04-23 20:48 872K
20260423T18Z_MSC_RDPS_RelativeHumidity_IsbL-0650_RLatLon0.09_PT036H.grib2 2026-04-23 20:48 883K
20260423T18Z_MSC_RDPS_RelativeHumidity_IsbL-0700_RLatLon0.09_PT036H.grib2 2026-04-23 20:48 894K
20260423T18Z_MSC_RDPS_RelativeHumidity_IsbL-0750_RLatLon0.09_PT036H.grib2 2026-04-23 20:48 940K
20260423T18Z_MSC_RDPS_RelativeHumidity_IsbL-0800_RLatLon0.09_PT036H.grib2 2026-04-23 20:48 1.0M
20260423T18Z_MSC_RDPS_RelativeHumidity_IsbL-0850_RLatLon0.09_PT036H.grib2 2026-04-23 20:48 1.0M
20260423T18Z_MSC_RDPS_RelativeHumidity_IsbL-0875_RLatLon0.09_PT036H.grib2 2026-04-23 20:48 1.1M
20260423T18Z_MSC_RDPS_RelativeHumidity_IsbL-0900_RLatLon0.09_PT036H.grib2 2026-04-23 20:48 1.1M
20260423T18Z_MSC_RDPS_RelativeHumidity_IsbL-0925_RLatLon0.09_PT036H.grib2 2026-04-23 20:48 1.1M
20260423T18Z_MSC_RDPS_RelativeHumidity_IsbL-0950_RLatLon0.09_PT036H.grib2 2026-04-23 20:48 1.1M
20260423T18Z_MSC_RDPS_RelativeHumidity_IsbL-0970_RLatLon0.09_PT036H.grib2 2026-04-23 20:48 1.0M
20260423T18Z_MSC_RDPS_RelativeHumidity_IsbL-0985_RLatLon0.09_PT036H.grib2 2026-04-23 20:48 1.0M
20260423T18Z_MSC_RDPS_RelativeHumidity_IsbL-1000_RLatLon0.09_PT036H.grib2 2026-04-23 20:48 1.0M
20260423T18Z_MSC_RDPS_RelativeHumidity_IsbL-1015_RLatLon0.09_PT036H.grib2 2026-04-23 20:48 1.0M
20260423T18Z_MSC_RDPS_Runoff-Accum_Sfc_RLatLon0.09_PT036H.grib2 2026-04-23 20:48 68K
20260423T18Z_MSC_RDPS_SWEATIndex_Sfc_RLatLon0.09_PT036H.grib2 2026-04-23 20:48 2.4M
20260423T18Z_MSC_RDPS_SeeingIndex_EAtm_RLatLon0.09_PT036H.grib2 2026-04-23 20:48 1.0M
20260423T18Z_MSC_RDPS_SensibleHeatNetFlux_Sfc_RLatLon0.09_PT036H.grib2 2026-04-23 20:48 286K
20260423T18Z_MSC_RDPS_ShowalterIndex_IsbL-0500_RLatLon0.09_PT036H.grib2 2026-04-23 20:48 2.6M
20260423T18Z_MSC_RDPS_SkyTransparencyIndex_EAtm_RLatLon0.09_PT036H.grib2 2026-04-23 20:48 705K
20260423T18Z_MSC_RDPS_Snow-Accum12h_Sfc_RLatLon0.09_PT036H.grib2 2026-04-23 20:48 706K
20260423T18Z_MSC_RDPS_Snow-Accum1h_Sfc_RLatLon0.09_PT036H.grib2 2026-04-23 20:48 587K
20260423T18Z_MSC_RDPS_Snow-Accum24h_Sfc_RLatLon0.09_PT036H.grib2 2026-04-23 20:48 706K
20260423T18Z_MSC_RDPS_Snow-Accum3h_Sfc_RLatLon0.09_PT036H.grib2 2026-04-23 20:48 548K
20260423T18Z_MSC_RDPS_Snow-Accum6h_Sfc_RLatLon0.09_PT036H.grib2 2026-04-23 20:48 659K
20260423T18Z_MSC_RDPS_Snow-Accum_Sfc_RLatLon0.09_PT036H.grib2 2026-04-23 20:48 811K
20260423T18Z_MSC_RDPS_SnowDensity_Sfc_RLatLon0.09_PT036H.grib2 2026-04-23 20:48 177K
20260423T18Z_MSC_RDPS_SnowDepth_Sfc_RLatLon0.09_PT036H.grib2 2026-04-23 20:48 724K
20260423T18Z_MSC_RDPS_SoilTemp_DBS-0to10cm_RLatLon0.09_PT036H.grib2 2026-04-23 20:48 232K
20260423T18Z_MSC_RDPS_SoilTemp_Sfc_RLatLon0.09_PT036H.grib2 2026-04-23 20:48 278K
20260423T18Z_MSC_RDPS_SoilVolumetricIceContent_Sfc_RLatLon0.09_PT036H.grib2 2026-04-23 20:48 168K
20260423T18Z_MSC_RDPS_SoilVolumetricWaterContent_DBS-0to10cm_RLatLon0.09_PT036H.grib2 2026-04-23 20:48 254K
20260423T18Z_MSC_RDPS_SoilVolumetricWaterContent_DBS-0to1cm_RLatLon0.09_PT036H.grib2 2026-04-23 20:48 340K
20260423T18Z_MSC_RDPS_SpecificHumidity_AGL-120m_RLatLon0.09_PT036H.grib2 2026-04-23 20:48 476K
20260423T18Z_MSC_RDPS_SpecificHumidity_AGL-2m_RLatLon0.09_PT036H.grib2 2026-04-23 20:48 638K
20260423T18Z_MSC_RDPS_SpecificHumidity_AGL-40m_RLatLon0.09_PT036H.grib2 2026-04-23 20:48 481K
20260423T18Z_MSC_RDPS_SpecificHumidity_AGL-80m_RLatLon0.09_PT036H.grib2 2026-04-23 20:48 477K
20260423T18Z_MSC_RDPS_SpecificHumidity_IsbL-0001_RLatLon0.09_PT036H.grib2 2026-04-23 20:48 336K
20260423T18Z_MSC_RDPS_SpecificHumidity_IsbL-0005_RLatLon0.09_PT036H.grib2 2026-04-23 20:48 458K
20260423T18Z_MSC_RDPS_SpecificHumidity_IsbL-0010_RLatLon0.09_PT036H.grib2 2026-04-23 20:48 396K
20260423T18Z_MSC_RDPS_SpecificHumidity_IsbL-0020_RLatLon0.09_PT036H.grib2 2026-04-23 20:48 385K
20260423T18Z_MSC_RDPS_SpecificHumidity_IsbL-0030_RLatLon0.09_PT036H.grib2 2026-04-23 20:48 448K
20260423T18Z_MSC_RDPS_SpecificHumidity_IsbL-0050_RLatLon0.09_PT036H.grib2 2026-04-23 20:48 480K
20260423T18Z_MSC_RDPS_SpecificHumidity_IsbL-0100_RLatLon0.09_PT036H.grib2 2026-04-23 20:48 531K
20260423T18Z_MSC_RDPS_SpecificHumidity_IsbL-0150_RLatLon0.09_PT036H.grib2 2026-04-23 20:48 349K
20260423T18Z_MSC_RDPS_SpecificHumidity_IsbL-0175_RLatLon0.09_PT036H.grib2 2026-04-23 20:48 547K
20260423T18Z_MSC_RDPS_SpecificHumidity_IsbL-0200_RLatLon0.09_PT036H.grib2 2026-04-23 20:48 564K
20260423T18Z_MSC_RDPS_SpecificHumidity_IsbL-0225_RLatLon0.09_PT036H.grib2 2026-04-23 20:48 569K
20260423T18Z_MSC_RDPS_SpecificHumidity_IsbL-0250_RLatLon0.09_PT036H.grib2 2026-04-23 20:48 570K
20260423T18Z_MSC_RDPS_SpecificHumidity_IsbL-0275_RLatLon0.09_PT036H.grib2 2026-04-23 20:48 485K
20260423T18Z_MSC_RDPS_SpecificHumidity_IsbL-0300_RLatLon0.09_PT036H.grib2 2026-04-23 20:48 557K
20260423T18Z_MSC_RDPS_SpecificHumidity_IsbL-0350_RLatLon0.09_PT036H.grib2 2026-04-23 20:48 550K
20260423T18Z_MSC_RDPS_SpecificHumidity_IsbL-0400_RLatLon0.09_PT036H.grib2 2026-04-23 20:48 531K
20260423T18Z_MSC_RDPS_SpecificHumidity_IsbL-0450_RLatLon0.09_PT036H.grib2 2026-04-23 20:48 584K
20260423T18Z_MSC_RDPS_SpecificHumidity_IsbL-0500_RLatLon0.09_PT036H.grib2 2026-04-23 20:48 521K
20260423T18Z_MSC_RDPS_SpecificHumidity_IsbL-0550_RLatLon0.09_PT036H.grib2 2026-04-23 20:48 594K
20260423T18Z_MSC_RDPS_SpecificHumidity_IsbL-0600_RLatLon0.09_PT036H.grib2 2026-04-23 20:48 644K
20260423T18Z_MSC_RDPS_SpecificHumidity_IsbL-0650_RLatLon0.09_PT036H.grib2 2026-04-23 20:48 558K
20260423T18Z_MSC_RDPS_SpecificHumidity_IsbL-0700_RLatLon0.09_PT036H.grib2 2026-04-23 20:48 598K
20260423T18Z_MSC_RDPS_SpecificHumidity_IsbL-0750_RLatLon0.09_PT036H.grib2 2026-04-23 20:48 650K
20260423T18Z_MSC_RDPS_SpecificHumidity_IsbL-0800_RLatLon0.09_PT036H.grib2 2026-04-23 20:48 716K
20260423T18Z_MSC_RDPS_SpecificHumidity_IsbL-0850_RLatLon0.09_PT036H.grib2 2026-04-23 20:48 788K
20260423T18Z_MSC_RDPS_SpecificHumidity_IsbL-0875_RLatLon0.09_PT036H.grib2 2026-04-23 20:48 814K
20260423T18Z_MSC_RDPS_SpecificHumidity_IsbL-0900_RLatLon0.09_PT036H.grib2 2026-04-23 20:48 830K
20260423T18Z_MSC_RDPS_SpecificHumidity_IsbL-0925_RLatLon0.09_PT036H.grib2 2026-04-23 20:48 832K
20260423T18Z_MSC_RDPS_SpecificHumidity_IsbL-0950_RLatLon0.09_PT036H.grib2 2026-04-23 20:48 828K
20260423T18Z_MSC_RDPS_SpecificHumidity_IsbL-0970_RLatLon0.09_PT036H.grib2 2026-04-23 20:48 815K
20260423T18Z_MSC_RDPS_SpecificHumidity_IsbL-0985_RLatLon0.09_PT036H.grib2 2026-04-23 20:48 806K
20260423T18Z_MSC_RDPS_SpecificHumidity_IsbL-1000_RLatLon0.09_PT036H.grib2 2026-04-23 20:48 796K
20260423T18Z_MSC_RDPS_SpecificHumidity_IsbL-1015_RLatLon0.09_PT036H.grib2 2026-04-23 20:48 646K
20260423T18Z_MSC_RDPS_SpecificHumidity_Sfc_RLatLon0.09_PT036H.grib2 2026-04-23 20:48 289K
20260423T18Z_MSC_RDPS_StormRelativeHelicity_EtaL-10000_RLatLon0.09_PT036H.grib2 2026-04-23 20:48 1.1M
20260423T18Z_MSC_RDPS_StormSeverityIndex_EtaL-10000_RLatLon0.09_PT036H.grib2 2026-04-23 20:48 1.2M
20260423T18Z_MSC_RDPS_Thickness_IsbL-0850to0700_RLatLon0.09_PT036H.grib2 2026-04-23 20:48 176K
20260423T18Z_MSC_RDPS_Thickness_IsbL-1000to0500_RLatLon0.09_PT036H.grib2 2026-04-23 20:48 198K
20260423T18Z_MSC_RDPS_Thickness_IsbL-1000to0850_RLatLon0.09_PT036H.grib2 2026-04-23 20:48 184K
20260423T18Z_MSC_RDPS_TotalCloudCover_Sfc_RLatLon0.09_PT036H.grib2 2026-04-23 20:48 659K
20260423T18Z_MSC_RDPS_TotalTotalsIndex_Sfc_RLatLon0.09_PT036H.grib2 2026-04-23 20:48 2.4M
20260423T18Z_MSC_RDPS_UVIndex-ClearSky_Sfc_RLatLon0.09_PT036H.grib2 2026-04-23 20:48 116K
20260423T18Z_MSC_RDPS_UVIndex_Sfc_RLatLon0.09_PT036H.grib2 2026-04-23 20:48 183K
20260423T18Z_MSC_RDPS_UpwardLongwaveRadiationFlux_NTAtm_RLatLon0.09_PT036H.grib2 2026-04-23 20:48 488K
20260423T18Z_MSC_RDPS_UpwardShortwaveRadiationFlux_NTAtm_RLatLon0.09_PT036H.grib2 2026-04-23 20:48 163K
20260423T18Z_MSC_RDPS_VerticalVelocity_IsbL-0250_RLatLon0.09_PT036H.grib2 2026-04-23 20:48 567K
20260423T18Z_MSC_RDPS_VerticalVelocity_IsbL-0500_RLatLon0.09_PT036H.grib2 2026-04-23 20:48 549K
20260423T18Z_MSC_RDPS_VerticalVelocity_IsbL-0700_RLatLon0.09_PT036H.grib2 2026-04-23 20:48 598K
20260423T18Z_MSC_RDPS_VerticalVelocity_IsbL-0850_RLatLon0.09_PT036H.grib2 2026-04-23 20:48 695K
20260423T18Z_MSC_RDPS_VerticalWindShear_EtaL-6500_RLatLon0.09_PT036H.grib2 2026-04-23 20:48 1.2M
20260423T18Z_MSC_RDPS_WindChill_Sfc_RLatLon0.09_PT036H.grib2 2026-04-23 20:48 1.2M
20260423T18Z_MSC_RDPS_WindDir_AGL-10m_RLatLon0.09_PT036H.grib2 2026-04-23 20:48 1.0M
20260423T18Z_MSC_RDPS_WindDir_AGL-120m_RLatLon0.09_PT036H.grib2 2026-04-23 20:48 615K
20260423T18Z_MSC_RDPS_WindDir_AGL-40m_RLatLon0.09_PT036H.grib2 2026-04-23 20:48 650K
20260423T18Z_MSC_RDPS_WindDir_AGL-80m_RLatLon0.09_PT036H.grib2 2026-04-23 20:48 629K
20260423T18Z_MSC_RDPS_WindDir_IsbL-0001_RLatLon0.09_PT036H.grib2 2026-04-23 20:48 277K
20260423T18Z_MSC_RDPS_WindDir_IsbL-0005_RLatLon0.09_PT036H.grib2 2026-04-23 20:48 371K
20260423T18Z_MSC_RDPS_WindDir_IsbL-0010_RLatLon0.09_PT036H.grib2 2026-04-23 20:48 382K
20260423T18Z_MSC_RDPS_WindDir_IsbL-0020_RLatLon0.09_PT036H.grib2 2026-04-23 20:48 408K
20260423T18Z_MSC_RDPS_WindDir_IsbL-0030_RLatLon0.09_PT036H.grib2 2026-04-23 20:48 411K
20260423T18Z_MSC_RDPS_WindDir_IsbL-0050_RLatLon0.09_PT036H.grib2 2026-04-23 20:48 443K
20260423T18Z_MSC_RDPS_WindDir_IsbL-0100_RLatLon0.09_PT036H.grib2 2026-04-23 20:48 441K
20260423T18Z_MSC_RDPS_WindDir_IsbL-0150_RLatLon0.09_PT036H.grib2 2026-04-23 20:48 428K
20260423T18Z_MSC_RDPS_WindDir_IsbL-0175_RLatLon0.09_PT036H.grib2 2026-04-23 20:48 446K
20260423T18Z_MSC_RDPS_WindDir_IsbL-0200_RLatLon0.09_PT036H.grib2 2026-04-23 20:48 450K
20260423T18Z_MSC_RDPS_WindDir_IsbL-0225_RLatLon0.09_PT036H.grib2 2026-04-23 20:48 443K
20260423T18Z_MSC_RDPS_WindDir_IsbL-0250_RLatLon0.09_PT036H.grib2 2026-04-23 20:48 443K
20260423T18Z_MSC_RDPS_WindDir_IsbL-0275_RLatLon0.09_PT036H.grib2 2026-04-23 20:48 463K
20260423T18Z_MSC_RDPS_WindDir_IsbL-0300_RLatLon0.09_PT036H.grib2 2026-04-23 20:48 466K
20260423T18Z_MSC_RDPS_WindDir_IsbL-0350_RLatLon0.09_PT036H.grib2 2026-04-23 20:48 490K
20260423T18Z_MSC_RDPS_WindDir_IsbL-0400_RLatLon0.09_PT036H.grib2 2026-04-23 20:48 504K
20260423T18Z_MSC_RDPS_WindDir_IsbL-0450_RLatLon0.09_PT036H.grib2 2026-04-23 20:48 518K
20260423T18Z_MSC_RDPS_WindDir_IsbL-0500_RLatLon0.09_PT036H.grib2 2026-04-23 20:48 539K
20260423T18Z_MSC_RDPS_WindDir_IsbL-0550_RLatLon0.09_PT036H.grib2 2026-04-23 20:48 559K
20260423T18Z_MSC_RDPS_WindDir_IsbL-0600_RLatLon0.09_PT036H.grib2 2026-04-23 20:48 593K
20260423T18Z_MSC_RDPS_WindDir_IsbL-0650_RLatLon0.09_PT036H.grib2 2026-04-23 20:48 638K
20260423T18Z_MSC_RDPS_WindDir_IsbL-0700_RLatLon0.09_PT036H.grib2 2026-04-23 20:48 685K
20260423T18Z_MSC_RDPS_WindDir_IsbL-0750_RLatLon0.09_PT036H.grib2 2026-04-23 20:48 735K
20260423T18Z_MSC_RDPS_WindDir_IsbL-0800_RLatLon0.09_PT036H.grib2 2026-04-23 20:48 803K
20260423T18Z_MSC_RDPS_WindDir_IsbL-0850_RLatLon0.09_PT036H.grib2 2026-04-23 20:48 875K
20260423T18Z_MSC_RDPS_WindDir_IsbL-0875_RLatLon0.09_PT036H.grib2 2026-04-23 20:48 901K
20260423T18Z_MSC_RDPS_WindDir_IsbL-0900_RLatLon0.09_PT036H.grib2 2026-04-23 20:48 917K
20260423T18Z_MSC_RDPS_WindDir_IsbL-0925_RLatLon0.09_PT036H.grib2 2026-04-23 20:48 924K
20260423T18Z_MSC_RDPS_WindDir_IsbL-0950_RLatLon0.09_PT036H.grib2 2026-04-23 20:48 924K
20260423T18Z_MSC_RDPS_WindDir_IsbL-0970_RLatLon0.09_PT036H.grib2 2026-04-23 20:48 933K
20260423T18Z_MSC_RDPS_WindDir_IsbL-0985_RLatLon0.09_PT036H.grib2 2026-04-23 20:48 945K
20260423T18Z_MSC_RDPS_WindDir_IsbL-1000_RLatLon0.09_PT036H.grib2 2026-04-23 20:48 960K
20260423T18Z_MSC_RDPS_WindDir_IsbL-1015_RLatLon0.09_PT036H.grib2 2026-04-23 20:48 1.0M
20260423T18Z_MSC_RDPS_WindGust-Max_AGL-10m_RLatLon0.09_PT036H.grib2 2026-04-23 20:48 1.0M
20260423T18Z_MSC_RDPS_WindGust-Min_AGL-10m_RLatLon0.09_PT036H.grib2 2026-04-23 20:48 962K
20260423T18Z_MSC_RDPS_WindGust_AGL-10m_RLatLon0.09_PT036H.grib2 2026-04-23 20:48 1.0M
20260423T18Z_MSC_RDPS_WindSpeed_AGL-10m_RLatLon0.09_PT036H.grib2 2026-04-23 20:48 846K
20260423T18Z_MSC_RDPS_WindSpeed_AGL-120m_RLatLon0.09_PT036H.grib2 2026-04-23 20:48 543K
20260423T18Z_MSC_RDPS_WindSpeed_AGL-40m_RLatLon0.09_PT036H.grib2 2026-04-23 20:48 676K
20260423T18Z_MSC_RDPS_WindSpeed_AGL-80m_RLatLon0.09_PT036H.grib2 2026-04-23 20:48 544K
20260423T18Z_MSC_RDPS_WindSpeed_IsbL-0001_RLatLon0.09_PT036H.grib2 2026-04-23 20:48 253K
20260423T18Z_MSC_RDPS_WindSpeed_IsbL-0005_RLatLon0.09_PT036H.grib2 2026-04-23 20:48 394K
20260423T18Z_MSC_RDPS_WindSpeed_IsbL-0010_RLatLon0.09_PT036H.grib2 2026-04-23 20:48 406K
20260423T18Z_MSC_RDPS_WindSpeed_IsbL-0020_RLatLon0.09_PT036H.grib2 2026-04-23 20:48 429K
20260423T18Z_MSC_RDPS_WindSpeed_IsbL-0030_RLatLon0.09_PT036H.grib2 2026-04-23 20:48 336K
20260423T18Z_MSC_RDPS_WindSpeed_IsbL-0050_RLatLon0.09_PT036H.grib2 2026-04-23 20:48 371K
20260423T18Z_MSC_RDPS_WindSpeed_IsbL-0100_RLatLon0.09_PT036H.grib2 2026-04-23 20:48 450K
20260423T18Z_MSC_RDPS_WindSpeed_IsbL-0150_RLatLon0.09_PT036H.grib2 2026-04-23 20:48 390K
20260423T18Z_MSC_RDPS_WindSpeed_IsbL-0175_RLatLon0.09_PT036H.grib2 2026-04-23 20:48 438K
20260423T18Z_MSC_RDPS_WindSpeed_IsbL-0200_RLatLon0.09_PT036H.grib2 2026-04-23 20:48 454K
20260423T18Z_MSC_RDPS_WindSpeed_IsbL-0225_RLatLon0.09_PT036H.grib2 2026-04-23 20:48 460K
20260423T18Z_MSC_RDPS_WindSpeed_IsbL-0250_RLatLon0.09_PT036H.grib2 2026-04-23 20:48 461K
20260423T18Z_MSC_RDPS_WindSpeed_IsbL-0275_RLatLon0.09_PT036H.grib2 2026-04-23 20:48 478K
20260423T18Z_MSC_RDPS_WindSpeed_IsbL-0300_RLatLon0.09_PT036H.grib2 2026-04-23 20:48 474K
20260423T18Z_MSC_RDPS_WindSpeed_IsbL-0350_RLatLon0.09_PT036H.grib2 2026-04-23 20:48 484K
20260423T18Z_MSC_RDPS_WindSpeed_IsbL-0400_RLatLon0.09_PT036H.grib2 2026-04-23 20:48 469K
20260423T18Z_MSC_RDPS_WindSpeed_IsbL-0450_RLatLon0.09_PT036H.grib2 2026-04-23 20:48 468K
20260423T18Z_MSC_RDPS_WindSpeed_IsbL-0500_RLatLon0.09_PT036H.grib2 2026-04-23 20:48 467K
20260423T18Z_MSC_RDPS_WindSpeed_IsbL-0550_RLatLon0.09_PT036H.grib2 2026-04-23 20:48 468K
20260423T18Z_MSC_RDPS_WindSpeed_IsbL-0600_RLatLon0.09_PT036H.grib2 2026-04-23 20:48 596K
20260423T18Z_MSC_RDPS_WindSpeed_IsbL-0650_RLatLon0.09_PT036H.grib2 2026-04-23 20:48 618K
20260423T18Z_MSC_RDPS_WindSpeed_IsbL-0700_RLatLon0.09_PT036H.grib2 2026-04-23 20:48 685K
20260423T18Z_MSC_RDPS_WindSpeed_IsbL-0750_RLatLon0.09_PT036H.grib2 2026-04-23 20:48 716K
20260423T18Z_MSC_RDPS_WindSpeed_IsbL-0800_RLatLon0.09_PT036H.grib2 2026-04-23 20:48 766K
20260423T18Z_MSC_RDPS_WindSpeed_IsbL-0850_RLatLon0.09_PT036H.grib2 2026-04-23 20:48 771K
20260423T18Z_MSC_RDPS_WindSpeed_IsbL-0875_RLatLon0.09_PT036H.grib2 2026-04-23 20:48 789K
20260423T18Z_MSC_RDPS_WindSpeed_IsbL-0900_RLatLon0.09_PT036H.grib2 2026-04-23 20:48 851K
20260423T18Z_MSC_RDPS_WindSpeed_IsbL-0925_RLatLon0.09_PT036H.grib2 2026-04-23 20:48 864K
20260423T18Z_MSC_RDPS_WindSpeed_IsbL-0950_RLatLon0.09_PT036H.grib2 2026-04-23 20:48 864K
20260423T18Z_MSC_RDPS_WindSpeed_IsbL-0970_RLatLon0.09_PT036H.grib2 2026-04-23 20:48 862K
20260423T18Z_MSC_RDPS_WindSpeed_IsbL-0985_RLatLon0.09_PT036H.grib2 2026-04-23 20:48 857K
20260423T18Z_MSC_RDPS_WindSpeed_IsbL-1000_RLatLon0.09_PT036H.grib2 2026-04-23 20:48 852K
20260423T18Z_MSC_RDPS_WindSpeed_IsbL-1015_RLatLon0.09_PT036H.grib2 2026-04-23 20:48 844K
20260423T18Z_MSC_RDPS_WindU_AGL-10m_RLatLon0.09_PT036H.grib2 2026-04-23 20:48 435K
20260423T18Z_MSC_RDPS_WindU_AGL-120m_RLatLon0.09_PT036H.grib2 2026-04-23 20:48 422K
20260423T18Z_MSC_RDPS_WindU_AGL-40m_RLatLon0.09_PT036H.grib2 2026-04-23 20:48 543K
20260423T18Z_MSC_RDPS_WindU_AGL-80m_RLatLon0.09_PT036H.grib2 2026-04-23 20:48 541K
20260423T18Z_MSC_RDPS_WindU_IsbL-0001_RLatLon0.09_PT036H.grib2 2026-04-23 20:48 294K
20260423T18Z_MSC_RDPS_WindU_IsbL-0005_RLatLon0.09_PT036H.grib2 2026-04-23 20:48 336K
20260423T18Z_MSC_RDPS_WindU_IsbL-0010_RLatLon0.09_PT036H.grib2 2026-04-23 20:48 305K
20260423T18Z_MSC_RDPS_WindU_IsbL-0020_RLatLon0.09_PT036H.grib2 2026-04-23 20:48 325K
20260423T18Z_MSC_RDPS_WindU_IsbL-0030_RLatLon0.09_PT036H.grib2 2026-04-23 20:48 366K
20260423T18Z_MSC_RDPS_WindU_IsbL-0050_RLatLon0.09_PT036H.grib2 2026-04-23 20:48 363K
20260423T18Z_MSC_RDPS_WindU_IsbL-0100_RLatLon0.09_PT036H.grib2 2026-04-23 20:48 480K
20260423T18Z_MSC_RDPS_WindU_IsbL-0150_RLatLon0.09_PT036H.grib2 2026-04-23 20:48 383K
20260423T18Z_MSC_RDPS_WindU_IsbL-0175_RLatLon0.09_PT036H.grib2 2026-04-23 20:48 433K
20260423T18Z_MSC_RDPS_WindU_IsbL-0200_RLatLon0.09_PT036H.grib2 2026-04-23 20:48 448K
20260423T18Z_MSC_RDPS_WindU_IsbL-0225_RLatLon0.09_PT036H.grib2 2026-04-23 20:48 452K
20260423T18Z_MSC_RDPS_WindU_IsbL-0250_RLatLon0.09_PT036H.grib2 2026-04-23 20:48 451K
20260423T18Z_MSC_RDPS_WindU_IsbL-0275_RLatLon0.09_PT036H.grib2 2026-04-23 20:48 365K
20260423T18Z_MSC_RDPS_WindU_IsbL-0300_RLatLon0.09_PT036H.grib2 2026-04-23 20:48 361K
20260423T18Z_MSC_RDPS_WindU_IsbL-0350_RLatLon0.09_PT036H.grib2 2026-04-23 20:48 368K
20260423T18Z_MSC_RDPS_WindU_IsbL-0400_RLatLon0.09_PT036H.grib2 2026-04-23 20:48 369K
20260423T18Z_MSC_RDPS_WindU_IsbL-0450_RLatLon0.09_PT036H.grib2 2026-04-23 20:48 473K
20260423T18Z_MSC_RDPS_WindU_IsbL-0500_RLatLon0.09_PT036H.grib2 2026-04-23 20:48 472K
20260423T18Z_MSC_RDPS_WindU_IsbL-0550_RLatLon0.09_PT036H.grib2 2026-04-23 20:48 474K
20260423T18Z_MSC_RDPS_WindU_IsbL-0600_RLatLon0.09_PT036H.grib2 2026-04-23 20:48 484K
20260423T18Z_MSC_RDPS_WindU_IsbL-0650_RLatLon0.09_PT036H.grib2 2026-04-23 20:48 487K
20260423T18Z_MSC_RDPS_WindU_IsbL-0700_RLatLon0.09_PT036H.grib2 2026-04-23 20:48 508K
20260423T18Z_MSC_RDPS_WindU_IsbL-0750_RLatLon0.09_PT036H.grib2 2026-04-23 20:48 536K
20260423T18Z_MSC_RDPS_WindU_IsbL-0800_RLatLon0.09_PT036H.grib2 2026-04-23 20:48 580K
20260423T18Z_MSC_RDPS_WindU_IsbL-0850_RLatLon0.09_PT036H.grib2 2026-04-23 20:48 626K
20260423T18Z_MSC_RDPS_WindU_IsbL-0875_RLatLon0.09_PT036H.grib2 2026-04-23 20:48 641K
20260423T18Z_MSC_RDPS_WindU_IsbL-0900_RLatLon0.09_PT036H.grib2 2026-04-23 20:48 660K
20260423T18Z_MSC_RDPS_WindU_IsbL-0925_RLatLon0.09_PT036H.grib2 2026-04-23 20:48 669K
20260423T18Z_MSC_RDPS_WindU_IsbL-0950_RLatLon0.09_PT036H.grib2 2026-04-23 20:48 659K
20260423T18Z_MSC_RDPS_WindU_IsbL-0970_RLatLon0.09_PT036H.grib2 2026-04-23 20:48 659K
20260423T18Z_MSC_RDPS_WindU_IsbL-0985_RLatLon0.09_PT036H.grib2 2026-04-23 20:48 794K
20260423T18Z_MSC_RDPS_WindU_IsbL-1000_RLatLon0.09_PT036H.grib2 2026-04-23 20:48 836K
20260423T18Z_MSC_RDPS_WindU_IsbL-1015_RLatLon0.09_PT036H.grib2 2026-04-23 20:48 829K
20260423T18Z_MSC_RDPS_WindV_AGL-10m_RLatLon0.09_PT036H.grib2 2026-04-23 20:48 433K
20260423T18Z_MSC_RDPS_WindV_AGL-120m_RLatLon0.09_PT036H.grib2 2026-04-23 20:48 536K
20260423T18Z_MSC_RDPS_WindV_AGL-40m_RLatLon0.09_PT036H.grib2 2026-04-23 20:48 540K
20260423T18Z_MSC_RDPS_WindV_AGL-80m_RLatLon0.09_PT036H.grib2 2026-04-23 20:48 538K
20260423T18Z_MSC_RDPS_WindV_IsbL-0001_RLatLon0.09_PT036H.grib2 2026-04-23 20:48 295K
20260423T18Z_MSC_RDPS_WindV_IsbL-0005_RLatLon0.09_PT036H.grib2 2026-04-23 20:48 293K
20260423T18Z_MSC_RDPS_WindV_IsbL-0010_RLatLon0.09_PT036H.grib2 2026-04-23 20:48 306K
20260423T18Z_MSC_RDPS_WindV_IsbL-0020_RLatLon0.09_PT036H.grib2 2026-04-23 20:48 325K
20260423T18Z_MSC_RDPS_WindV_IsbL-0030_RLatLon0.09_PT036H.grib2 2026-04-23 20:48 328K
20260423T18Z_MSC_RDPS_WindV_IsbL-0050_RLatLon0.09_PT036H.grib2 2026-04-23 20:48 362K
20260423T18Z_MSC_RDPS_WindV_IsbL-0100_RLatLon0.09_PT036H.grib2 2026-04-23 20:48 342K
20260423T18Z_MSC_RDPS_WindV_IsbL-0150_RLatLon0.09_PT036H.grib2 2026-04-23 20:48 401K
20260423T18Z_MSC_RDPS_WindV_IsbL-0175_RLatLon0.09_PT036H.grib2 2026-04-23 20:48 333K
20260423T18Z_MSC_RDPS_WindV_IsbL-0200_RLatLon0.09_PT036H.grib2 2026-04-23 20:48 345K
20260423T18Z_MSC_RDPS_WindV_IsbL-0225_RLatLon0.09_PT036H.grib2 2026-04-23 20:48 347K
20260423T18Z_MSC_RDPS_WindV_IsbL-0250_RLatLon0.09_PT036H.grib2 2026-04-23 20:48 347K
20260423T18Z_MSC_RDPS_WindV_IsbL-0275_RLatLon0.09_PT036H.grib2 2026-04-23 20:48 361K
20260423T18Z_MSC_RDPS_WindV_IsbL-0300_RLatLon0.09_PT036H.grib2 2026-04-23 20:48 357K
20260423T18Z_MSC_RDPS_WindV_IsbL-0350_RLatLon0.09_PT036H.grib2 2026-04-23 20:48 366K
20260423T18Z_MSC_RDPS_WindV_IsbL-0400_RLatLon0.09_PT036H.grib2 2026-04-23 20:48 367K
20260423T18Z_MSC_RDPS_WindV_IsbL-0450_RLatLon0.09_PT036H.grib2 2026-04-23 20:48 470K
20260423T18Z_MSC_RDPS_WindV_IsbL-0500_RLatLon0.09_PT036H.grib2 2026-04-23 20:48 470K
20260423T18Z_MSC_RDPS_WindV_IsbL-0550_RLatLon0.09_PT036H.grib2 2026-04-23 20:48 471K
20260423T18Z_MSC_RDPS_WindV_IsbL-0600_RLatLon0.09_PT036H.grib2 2026-04-23 20:48 479K
20260423T18Z_MSC_RDPS_WindV_IsbL-0650_RLatLon0.09_PT036H.grib2 2026-04-23 20:48 498K
20260423T18Z_MSC_RDPS_WindV_IsbL-0700_RLatLon0.09_PT036H.grib2 2026-04-23 20:48 503K
20260423T18Z_MSC_RDPS_WindV_IsbL-0750_RLatLon0.09_PT036H.grib2 2026-04-23 20:48 530K
20260423T18Z_MSC_RDPS_WindV_IsbL-0800_RLatLon0.09_PT036H.grib2 2026-04-23 20:48 573K
20260423T18Z_MSC_RDPS_WindV_IsbL-0850_RLatLon0.09_PT036H.grib2 2026-04-23 20:48 620K
20260423T18Z_MSC_RDPS_WindV_IsbL-0875_RLatLon0.09_PT036H.grib2 2026-04-23 20:48 636K
20260423T18Z_MSC_RDPS_WindV_IsbL-0900_RLatLon0.09_PT036H.grib2 2026-04-23 20:48 648K
20260423T18Z_MSC_RDPS_WindV_IsbL-0925_RLatLon0.09_PT036H.grib2 2026-04-23 20:48 658K
20260423T18Z_MSC_RDPS_WindV_IsbL-0950_RLatLon0.09_PT036H.grib2 2026-04-23 20:48 795K
20260423T18Z_MSC_RDPS_WindV_IsbL-0970_RLatLon0.09_PT036H.grib2 2026-04-23 20:48 794K
20260423T18Z_MSC_RDPS_WindV_IsbL-0985_RLatLon0.09_PT036H.grib2 2026-04-23 20:48 789K
20260423T18Z_MSC_RDPS_WindV_IsbL-1000_RLatLon0.09_PT036H.grib2 2026-04-23 20:48 786K
20260423T18Z_MSC_RDPS_WindV_IsbL-1015_RLatLon0.09_PT036H.grib2 2026-04-23 20:48 827K